| time (UTC) | temp F | wind direction | speed MPH | gust MPH | rain 1hr in | rain 24hr in | rain mn in | humidity % | barometer mb |
| 20260504050010 | 56 | 250 | 2.0 | 5.0 | 0.00 | 0.00 | 0.00 | 73 | 1018.7 |
| 20260504044507 | 57 | 246 | 1.0 | 4.0 | 0.00 | 0.00 | 0.00 | 72 | 1018.7 |
| 20260504043004 | 57 | 245 | 2.0 | 4.0 | 0.00 | 0.00 | 0.00 | 70 | 1018.8 |
| 20260504041503 | 58 | 245 | 1.0 | 4.0 | 0.00 | 0.00 | 0.00 | 69 | 1018.8 |
| 20260504040123 | 59 | 244 | 0.0 | 1.0 | 0.00 | 0.00 | 0.00 | 68 | 1018.8 |
| 20260504034558 | 59 | 244 | 1.0 | 3.0 | 0.00 | 0.00 | 0.00 | 68 | 1018.7 |
| 20260504033101 | 60 | 244 | 1.0 | 5.0 | 0.00 | 0.00 | 0.00 | 67 | 1018.8 |
| 20260504031600 | 60 | 248 | 2.0 | 7.0 | 0.00 | 0.00 | 0.00 | 66 | 1018.7 |
| 20260504030057 | 61 | 239 | 2.0 | 8.0 | 0.00 | 0.00 | 0.00 | 66 | 1018.7 |
| 20260504024557 | 62 | 233 | 2.0 | 7.0 | 0.00 | 0.00 | 0.00 | 64 | 1018.7 |
| 20260504023101 | 62 | 211 | 1.0 | 8.0 | 0.00 | 0.00 | 0.00 | 65 | 1018.5 |
| 20260504021556 | 63 | 203 | 2.0 | 10.0 | 0.00 | 0.00 | 0.00 | 65 | 1018.4 |
| 20260504020055 | 62 | 225 | 1.0 | 12.0 | 0.00 | 0.00 | 0.00 | 65 | 1018.3 |
| 20260504014605 | 62 | 206 | 3.0 | 7.0 | 0.00 | 0.00 | 0.00 | 65 | 1018.2 |
| 20260504013100 | 62 | 253 | 2.0 | 7.0 | 0.00 | 0.00 | 0.00 | 65 | 1018.1 |
| 20260504011555 | 62 | 202 | 4.0 | 10.0 | 0.00 | 0.00 | 0.00 | 64 | 1017.7 |
| 20260504010055 | 62 | 186 | 2.0 | 8.0 | 0.00 | 0.00 | 0.00 | 62 | 1017.7 |
| 20260504004554 | 61 | 227 | 3.0 | 8.0 | 0.00 | 0.00 | 0.00 | 63 | 1017.5 |
| 20260504003101 | 61 | 205 | 1.0 | 7.0 | 0.00 | 0.00 | 0.00 | 63 | 1017.4 |
| 20260504001606 | 62 | 199 | 3.0 | 6.0 | 0.00 | 0.00 | 0.00 | 62 | 1017.2 |
| 20260504000110 | 62 | 221 | 3.0 | 10.0 | 0.00 | 0.01 | 0.00 | 60 | 1017.1 |
| 20260503234552 | 63 | 211 | 3.0 | 9.0 | 0.00 | 0.01 | 0.00 | 59 | 1016.9 |
| 20260503233051 | 64 | 242 | 2.0 | 10.0 | 0.00 | 0.01 | 0.00 | 58 | 1016.8 |
| 20260503231551 | 67 | 217 | 4.0 | 9.0 | 0.00 | 0.01 | 0.00 | 50 | 1016.8 |
| 20260503230050 | 69 | 266 | 1.0 | 6.0 | 0.00 | 0.06 | 0.00 | 38 | 1016.7 |
| 20260503224549 | 69 | 336 | 3.0 | 6.0 | 0.00 | 0.06 | 0.00 | 40 | 1016.7 |
| 20260503223050 | 69 | 325 | 3.0 | 9.0 | 0.00 | 0.06 | 0.00 | 41 | 1016.7 |
| 20260503221553 | 70 | 255 | 1.0 | 6.0 | 0.00 | 0.06 | 0.00 | 40 | 1016.7 |
| 20260503220047 | 69 | 317 | 5.0 | 9.0 | 0.00 | 0.10 | 0.00 | 41 | 1016.6 |
| 20260503214545 | 69 | 305 | 4.0 | 10.0 | 0.00 | 0.10 | 0.00 | 37 | 1016.6 |
| 20260503213046 | 69 | 267 | 2.0 | 11.0 | 0.00 | 0.10 | 0.00 | 37 | 1016.3 |
| 20260503211545 | 69 | 332 | 0.0 | 13.0 | 0.00 | 0.10 | 0.00 | 34 | 1016.2 |
| 20260503210044 | 69 | 250 | 2.0 | 13.0 | 0.00 | 0.11 | 0.00 | 37 | 1016.5 |
| 20260503204544 | 69 | 294 | 4.0 | 9.0 | 0.00 | 0.11 | 0.00 | 36 | 1016.7 |
| 20260503203043 | 69 | 344 | 5.0 | 11.0 | 0.00 | 0.11 | 0.00 | 41 | 1017.0 |
| 20260503201539 | 68 | 328 | 4.0 | 14.0 | 0.00 | 0.11 | 0.00 | 39 | 1016.8 |
| 20260503200039 | 68 | 319 | 8.0 | 11.0 | 0.00 | 0.15 | 0.00 | 40 | 1016.8 |
| 20260503194538 | 68 | 341 | 7.0 | 14.0 | 0.00 | 0.15 | 0.00 | 41 | 1017.0 |
| 20260503193042 | 68 | 340 | 4.0 | 12.0 | 0.00 | 0.15 | 0.00 | 43 | 1017.2 |
| 20260503191535 | 67 | 331 | 2.0 | 10.0 | 0.00 | 0.15 | 0.00 | 47 | 1017.5 |
| 20260503190034 | 67 | 348 | 5.0 | 14.0 | 0.00 | 0.20 | 0.00 | 43 | 1017.7 |
| 20260503184534 | 66 | 341 | 4.0 | 14.0 | 0.00 | 0.20 | 0.00 | 41 | 1017.7 |
| 20260503183034 | 66 | 358 | 3.0 | 11.0 | 0.00 | 0.20 | 0.00 | 43 | 1017.9 |
| 20260503181529 | 65 | 28 | 1.0 | 8.0 | 0.00 | 0.20 | 0.00 | 43 | 1018.2 |
| 20260503180131 | 65 | 344 | 3.0 | 10.0 | 0.00 | 0.20 | 0.00 | 44 | 1018.2 |
| 20260503174530 | 65 | 315 | 6.0 | 16.0 | 0.00 | 0.20 | 0.00 | 44 | 1018.3 |
| 20260503173025 | 64 | 319 | 10.0 | 17.0 | 0.00 | 0.20 | 0.00 | 44 | 1018.3 |
| 20260503171524 | 64 | 21 | 1.0 | 10.0 | 0.00 | 0.20 | 0.00 | 43 | 1018.6 |
| 20260503081514 | 50 | 316 | 7.0 | 11.0 | 0.00 | 0.35 | 0.00 | 88 | 1015.1 |